Printer-friendly version

IAU Minor Planet Center

Minor Planet Center

MPEC 2004-P27 : 2002 XM90

The following Minor Planet Electronic Circular may be linked-to from your own Web pages, but must not otherwise be redistributed electronically.


Read MPEC 2004-P26 Read MPEC 2004-P28


M.P.E.C. 2004-P27                                Issued 2004 Aug.  9, 13:13 UT

     The Minor Planet Electronic Circulars contain information on unusual
         minor planets and routine data on comets.  They are published
   on behalf of Commission 20 of the International Astronomical Union by the
          Minor Planet Center, Smithsonian Astrophysical Observatory,
                          Cambridge, MA 02138, U.S.A.

                  Supported in part by the Brinson Foundation
             Prepared using the Tamkin Foundation Computer Network

                              MPC@CFA.HARVARD.EDU
          URL http://cfa-www.harvard.edu/iau/mpc.html  ISSN 1523-6714

                                   2002 XM90

                           Revision to MPEC 2002-Y20

Additional Observations:
     K02X90M 2C2004 07 21.56952501 54 04.521-13 41 13.66         23.0 R EP027568
     K02X90M 2C2004 07 21.57362701 54 04.737-13 41 14.56         22.9 R EP027568
     K02X90M 2C2004 07 21.57752501 54 04.928-13 41 15.56         22.8 R EP027568
     K02X90M 2C2004 07 22.59105701 54 55.100-13 45 21.67         22.1 R EP027568
     K02X90M 2C2004 07 22.59495901 54 55.282-13 45 22.67         21.9 R EP027568
     K02X90M 2C2004 07 22.59885901 54 55.468-13 45 23.66         22.0 R EP027568

Observer details:
568 Mauna Kea.  Observer F. Bernardi.  Measurers F. Bernardi, D. J. Tholen.
    2.2-m University of Hawaii reflector + CCD.

First and last observations above in comparison with prediction:
Residuals in seconds of arc, reference and Delta-T
040721 568  5.6+  4.7+    040722 568  5.7+  4.5+    MPO 50726   -0.011 day

Orbital elements:
2002 XM90
Epoch 2004 July 14.0 TT = JDT 2453200.5                 MPC
M 202.25105              (2000.0)            P               Q
n   0.41120835     Peri.   80.64902     -0.89311007     -0.29283303
a   1.7909966      Node    81.73061     +0.13429978     -0.89805529
e   0.3778493      Incl.   20.18545     +0.42932269     -0.32824610
P   2.40           H   18.0           G   0.15           U   1
Residuals in seconds of arc
021205 704  0.1+  0.0     030108 699  0.2+  0.0     030331 151  0.4-  0.8-
021205 704  0.2-  0.2+    030108 699  0.6+  0.4+    030331 151  0.3-  0.7+
021205 704  0.0   0.1+    030108 699  0.2-  0.2+    030331 151  1.3+  0.9-
021205 704  0.1-  0.5+    030108 699  0.2+  0.4+    030402 084  1.0-  0.4+
021205 704  0.3+  0.3-    030108 699  0.1+  0.0     030407 151  1.2+  1.1+
021207 704  0.2-  0.2-    030108 699  0.6+  0.7+    030407 151  0.5+  0.1-
021207 704  0.2+  0.1+    030111 726  0.2+  0.6+    030407 151  0.4-  0.2+
021207 704  1.3+  0.7-    030111 726  0.2-  0.5+    030407 151  0.5-  0.3+
021207 704  0.6+  0.3-    030111 726  0.1-  0.3+    030407 151  0.3+  0.8-
021211 704  0.3-  0.6+    030111 726  0.6+  0.2+    030409 084  0.1-  0.1-
021211 704  0.1+  0.1+    030111 726  0.5-  0.7-    030410 704  0.0   0.6-
021211 704  0.2+  0.2+    030111 726  0.1-  0.0     030410 704  0.5+  0.9-
021211 704  0.6+  0.5+    030112 670  0.1+  0.8-    030410 704  1.2+  1.2-
021211 704  0.7+  0.6+    030112 670  0.4+  0.1-    030410 704  0.6+  1.2-
021212 704  1.5-  0.3+    030112 151  0.1-  0.2+    030410 704  1.2+  1.2-
021212 704  0.4-  0.4+    030112 151  0.3-  1.0+    030414 704  0.5+  0.8-
021212 704  0.4-  0.1-    030112 151  0.7-  0.0     030414 704  0.0   0.0
021212 704  0.4-  0.7+    030112 151  0.2+  0.2+    030414 704  1.6-  0.0
021212 704  0.2-  0.1-    030112 151  0.6+  0.3+    030414 704  0.6-  0.1+
021212 704  0.4-  0.6+    030112 151  0.2+  0.9+    030415 084  0.9-  0.0
021212 704  0.1-  0.0     030112 151  0.3+  0.6+    030420 118  0.8+  0.8-
021212 704  0.0   0.5-    030112 151  0.0   0.3+    030420 118  0.3+  0.4+
021215 704  1.3-  0.2+    030112 198  0.8+  0.2+    030420 118  0.8+  1.2+
021215 704  1.6-  0.1-    030112 198  0.5+  0.2+    030420 084  0.1-  0.3+
021215 704  1.5-  0.1-    030112 198  0.4+  0.1-    030421 084  0.0   0.3-
021215 704  1.7-  0.2-    030112 198  0.3+  0.3+    030423 240  0.2-  0.0
021215 704  0.9-  0.7+    030112 198  0.2+  0.3+    030423 240  0.2-  0.0
021215 704  0.3+  0.1-    030112 198  0.0   0.3+    030423 240  0.1-  0.2+
021215 704  0.4+  0.1-    030116 670  0.0   0.3-    030423 240  0.0   0.3-
021215 704  0.2-  0.3+    030116 670  0.4-  0.5+    030423 240  0.0   0.1+
021215 704  0.4+  0.0     030116 670  0.3-  0.0     030423 240  0.2+  0.2+
021215 704  0.5+  0.5+    030123 704  0.1-  0.3+    030423 240  0.2+  0.1+
021216 649  0.1-  0.0     030123 704  0.1-  0.4+    030424 151  0.2+  0.7-
021216 649  0.0   0.1-    030123 704  0.1+  0.5+    030424 151  0.7-  1.3-
021216 649  0.0   0.1+    030123 704  0.8-  0.3+    030424 151  0.5-  0.8+
021216 333  0.2+  0.3-    030212 118  0.3-  0.2-    030424 151  0.4-  0.0
021216 333  0.6+  0.2-    030212 118  0.5+  0.0     030424 151  0.1+  0.6-
021216 333  0.1+  0.4+    030212 118  0.4+  0.2+    030424 084  0.9-  0.3+
021217 711  0.2+  0.2+    030212 118  0.6+  0.5+    030426 084  0.3-  0.8-
021217 711  0.4+  0.1-    030212 118  0.2-  0.2+    030426 170  0.4+  0.5+
021217 711  0.0   0.5+    030212 118  0.4+  0.4+    030426 170  0.4+  0.5+
021220 649  0.1+  0.3-    030213 118  1.1-  0.3+    030426 170  0.1+  0.5+
021220 649  0.2+  0.1+    030213 118  0.0   0.6-    030503 151  0.2-  0.1-
021220 649  0.1+  0.2-    030213 118  0.2-  0.2+    030503 151  0.8+  0.6-
021223 649  0.2+  0.1-    030213 118  0.6-  0.0     030503 151  0.8-  0.4+
021223 649  0.2+  0.1-    030215 185  0.0   0.9+    030503 151  0.6-  0.4-
021223 649  0.1+  0.0     030215 185  0.9-  0.2+    030503 941  0.2+  0.2+
021226 726  0.5-  1.8-    030215 185  1.0-  0.7-    030503 941  0.3+  0.1+
021226 726  0.9+  0.3+    030215 185  0.9+  0.2-    030503 941  0.3+  0.5+
021226 726  1.0-  0.4-    030215 185  1.1+  0.6-    030503 941  0.4+  0.6+
021226 726  0.1-  1.2-    030215 185  0.1-  0.7+    030504 118  0.2+  0.5+
021226 151  0.2-  0.1-    030220 240  0.3+  0.0     030504 118  0.2+  0.1+
021226 151  0.2+  0.3+    030220 240  0.3+  0.1-    030504 118  0.0   0.3+
021226 151  0.4+  0.6-    030220 240  0.5+  0.2-    030504 118  0.1+  0.2+
021226 151  0.3+  0.6+    030220 240  0.5+  0.1-    030504 118  0.8+  0.7+
021226 151  0.1+  0.6-    030220 240  0.4+  0.0     030504 118  0.6+  0.3+
021228 213  0.3-  0.4-    030220 240  0.5+  0.1-    030504 118  0.1-  0.4+
021228 213  1.1+  1.7+    030220 240  0.3+  0.0     030504 118  0.7-  0.7+
021228 704 (1.5+  2.1+)   030220 240  0.4+  0.1+    030505 785 (2.3+  1.2+)
021228 704  0.8-  0.3+    030220 240  0.3+  0.0     030505 785  0.6-  0.9+
021228 704  0.7-  0.2+    030302 084  0.0   0.5+    030505 785  0.3+  0.4-
021228 704  1.0-  0.1+    030304 084  0.0   0.3+    030509 084  0.1+  0.7-
021228 704  0.3-  0.3-    030304 084  0.1-  0.5+    030511 084  0.5+  0.5-
021230 170  0.6+  0.1-    030306 084  0.8+  0.0     030512 170  0.2+  0.8+
021230 170  0.4+  0.1+    030309 084  0.7+  1.1+    030512 170  0.8+  0.7+
021230 170  0.2-  0.6-    030315 118  0.3-  0.0     030512 170  0.2-  1.1+
021230 170  0.5-  0.4+    030315 118  0.5-  0.1+    030512 170  0.1-  1.1+
021230 170  0.6-  0.4+    030315 118  0.5-  0.2+    030512 170  0.0   1.0+
030102 670  0.2+  0.1-    030315 118  0.5+  0.1+    030517 118  0.9-  0.3+
030102 670  0.7-  0.8-    030319 151  0.2-  0.2+    030517 118  0.6-  0.5+
030102 670  0.1-  0.3-    030319 151  0.7-  0.2+    030517 118  0.1+  1.0+
030103 170  0.1+  0.2+    030319 151  0.7-  0.6+    030530 608  0.4-  1.2+
030103 170  0.2+  0.1-    030319 151  0.9-  0.4+    030530 608  0.3-  1.5+
030103 170  0.5+  0.1+    030319 151  0.8+  0.2-    030530 608  0.2-  1.4+
030103 170  0.6+  1.0+    030321 084  0.8+  0.8+    030607 941  0.8+  0.8+
030103 170  0.5+  0.1-    030324 151  1.3-  0.1-    030607 941  1.1+  0.5+
030103 170  0.2-  0.8-    030324 151  0.2-  0.1-    030607 941  1.0+  0.3+
030104 941  0.3-  0.4+    030324 151  0.8-  0.3+    030607 941  0.9+  0.1+
030104 941  0.2-  0.3+    030324 151  0.7-  0.5-    040721 568  0.2-  0.2+
030104 941  0.5+  0.1+    030324 151  0.7+  1.3-    040721 568  0.0   0.3+
030104 941  0.2+  0.1+    030326 084  0.9+  0.5+    040721 568  0.0   0.3+
030104 941  0.1+  0.1+    030327 084  0.8+  0.3+    040722 568  0.1-  0.1+
030108 699 (2.3+  0.9+)   030328 084  0.3-  0.9+    040722 568  0.2-  0.0
030108 699 (3.2+  0.4-)   030329 084  0.0   0.2-    040722 568  0.2-  0.0

Ephemeris:
2002 XM90                a,e,i = 1.79, 0.38, 20                  q = 1.1143
Date    TT    R. A. (2000) Decl.     Delta      r     Elong.  Phase     V
2004 08 03    02 02.99   -14 44.5    1.930    2.417   106.2    23.8    22.5
2004 08 13    02 07.70   -15 56.2    1.808    2.403   113.8    22.7    22.3
2004 08 23    02 09.73   -17 25.7    1.696    2.386   121.6    21.2    22.1
2004 09 02    02 08.62   -19 09.5    1.594    2.368   129.5    19.2    21.9
2004 09 12    02 04.01   -21 01.3    1.509    2.348   137.1    17.0    21.6
2004 09 22    01 55.76   -22 51.0    1.442    2.326   143.4    14.9    21.5
2004 10 02    01 44.24   -24 24.9    1.397    2.302   147.1    13.7    21.3
2004 10 12    01 30.39   -25 28.9    1.375    2.276   146.7    13.9    21.3
2004 10 22    01 15.72   -25 51.8    1.378    2.249   142.3    15.7    21.3
2004 11 01    01 02.02   -25 29.3    1.403    2.219   135.2    18.4    21.4
2004 11 11    00 50.77   -24 24.3    1.447    2.188   126.8    21.2    21.5
2004 11 21    00 42.91   -22 43.9    1.506    2.155   118.1    23.9    21.7
2004 12 01    00 38.76   -20 37.3    1.576    2.120   109.5    26.0    21.8
2004 12 11    00 38.21   -18 12.1    1.654    2.083   101.3    27.6    21.9

Timothy B. Spahr             (C) Copyright 2004 MPC           M.P.E.C. 2004-P27

Read MPEC 2004-P26 Read MPEC 2004-P28


Our Web policy. Index to the CBAT/MPC/ICQ pages.


Valid HTML 4.01!